TimeCDT,TemperatureF,Dew PointF,Humidity,Sea Level PressureIn,VisibilityMPH,Wind Direction,Wind SpeedMPH,Gust SpeedMPH,PrecipitationIn,Events,Conditions,WindDirDegrees,DateUTC
12:53 AM,57.0,53.1,87,29.69,10.0,NNW,6.9,-,N/A,,Overcast,330,2012-10-02 05:53:00
1:01 AM,57.2,53.6,88,29.70,10.0,NW,9.2,-,N/A,,Overcast,320,2012-10-02 06:01:00
1:27 AM,57.2,53.6,88,29.70,10.0,NNW,6.9,-,N/A,,Overcast,330,2012-10-02 06:27:00
1:53 AM,57.0,53.1,87,29.70,10.0,NW,8.1,-,N/A,,Overcast,320,2012-10-02 06:53:00
2:31 AM,57.2,53.6,88,29.70,10.0,NW,8.1,-,N/A,,Overcast,320,2012-10-02 07:31:00
2:42 AM,57.2,53.6,88,29.70,10.0,NNW,8.1,-,N/A,,Overcast,330,2012-10-02 07:42:00
2:53 AM,57.0,52.0,83,29.69,10.0,NW,10.4,-,N/A,,Overcast,320,2012-10-02 07:53:00
3:53 AM,55.9,52.0,87,29.70,10.0,NW,6.9,-,N/A,,Mostly Cloudy,310,2012-10-02 08:53:00
4:53 AM,55.9,51.1,84,29.71,10.0,NW,6.9,-,N/A,,Overcast,310,2012-10-02 09:53:00
5:53 AM,55.9,51.1,84,29.73,10.0,NW,5.8,-,N/A,,Overcast,320,2012-10-02 10:53:00
6:44 AM,55.4,51.8,88,29.74,10.0,NW,5.8,-,N/A,,Overcast,320,2012-10-02 11:44:00
6:53 AM,55.9,51.1,84,29.74,10.0,NW,4.6,-,N/A,,Overcast,320,2012-10-02 11:53:00
7:53 AM,55.9,50.0,80,29.76,10.0,NW,5.8,-,N/A,,Overcast,310,2012-10-02 12:53:00
8:53 AM,55.9,51.1,84,29.77,10.0,WNW,6.9,-,N/A,,Overcast,290,2012-10-02 13:53:00
9:23 AM,55.4,50.0,82,29.79,10.0,NW,6.9,-,N/A,,Overcast,310,2012-10-02 14:23:00
9:31 AM,55.4,50.0,82,29.79,10.0,NW,9.2,-,N/A,,Overcast,310,2012-10-02 14:31:00
9:53 AM,57.0,50.0,77,29.79,10.0,NW,8.1,-,N/A,,Overcast,310,2012-10-02 14:53:00
10:53 AM,57.9,50.0,75,29.79,10.0,NW,8.1,-,N/A,,Overcast,310,2012-10-02 15:53:00
11:20 AM,59.0,51.8,77,29.80,10.0,NW,8.1,-,N/A,,Overcast,310,2012-10-02 16:20:00
11:53 AM,60.1,51.1,72,29.79,10.0,NW,5.8,-,N/A,,Overcast,310,2012-10-02 16:53:00
12:53 PM,60.1,52.0,75,29.80,10.0,North,6.9,-,N/A,,Overcast,350,2012-10-02 17:53:00
1:23 PM,60.8,51.8,72,29.80,10.0,NW,4.6,-,N/A,,Overcast,320,2012-10-02 18:23:00
1:53 PM,61.0,53.1,75,29.80,10.0,Calm,Calm,-,N/A,,Overcast,0,2012-10-02 18:53:00
2:53 PM,61.0,50.0,67,29.81,10.0,NNW,9.2,17.3,N/A,,Overcast,340,2012-10-02 19:53:00
3:53 PM,60.1,51.1,72,29.83,10.0,NW,5.8,18.4,N/A,,Overcast,310,2012-10-02 20:53:00
4:10 PM,60.8,51.8,72,29.84,10.0,NNW,10.4,-,N/A,,Overcast,340,2012-10-02 21:10:00
4:49 PM,59.0,51.8,77,29.86,10.0,Calm,Calm,-,N/A,,Overcast,0,2012-10-02 21:49:00
4:53 PM,59.0,52.0,78,29.86,10.0,Calm,Calm,-,N/A,,Overcast,0,2012-10-02 21:53:00
5:53 PM,59.0,53.1,81,29.86,10.0,Calm,Calm,-,N/A,,Overcast,0,2012-10-02 22:53:00
6:53 PM,57.2,53.6,88,29.88,10.0,Calm,Calm,-,N/A,,Overcast,0,2012-10-02 23:53:00
7:53 PM,57.9,54.0,87,29.88,10.0,Calm,Calm,-,N/A,,Overcast,0,2012-10-03 00:53:00
8:53 PM,57.9,54.0,87,29.90,10.0,Calm,Calm,-,N/A,,Overcast,0,2012-10-03 01:53:00
9:53 PM,57.9,53.1,84,29.92,10.0,SSW,4.6,-,N/A,,Overcast,210,2012-10-03 02:53:00
10:53 PM,57.9,53.1,84,29.93,10.0,South,3.5,-,N/A,,Overcast,190,2012-10-03 03:53:00
11:53 PM,57.9,53.1,84,29.92,10.0,Calm,Calm,-,N/A,,Overcast,0,2012-10-03 04:53:00